📊 Raw Sensor Data

Showing records 43651 to 43675 of 85,021 total

ID Distance (ft) Battery V Battery A Int Temp (°F) Int Humid (%) Ext Temp (°F) Solar V RSSI SNR Time Stamp
41383 15.3 3.88 -5 51 43 52 0.00 -68 8 05/23/2025 01:00 AM
41382 15.3 3.88 -5 52 43 53 0.00 -66 8 05/23/2025 12:45 AM
41381 15.2 3.94 -5 52 44 53 0.00 -67 7 05/23/2025 12:30 AM
41380 15.2 3.88 -5 52 44 54 0.10 -67 8 05/23/2025 12:15 AM
41379 15.2 3.88 -5 53 44 53 0.10 -67 8 05/23/2025 12:00 AM
41378 15.2 3.95 -5 53 44 54 0.00 -67 7 05/22/2025 11:45 PM
41377 15.2 3.88 -5 54 44 55 0.00 -67 8 05/22/2025 11:30 PM
41376 15.2 3.88 -5 54 44 55 0.00 -67 8 05/22/2025 11:15 PM
41375 15.2 3.88 -5 55 44 56 0.00 -68 8 05/22/2025 11:00 PM
41374 15.2 3.86 -5 55 45 56 0.00 -67 7 05/22/2025 10:45 PM
41373 15.2 3.83 -5 56 45 57 0.10 -69 8 05/22/2025 10:30 PM
41372 14.7 3.84 -5 56 45 57 0.00 -69 8 05/22/2025 10:15 PM
41371 14.7 3.84 -5 57 46 58 0.00 -68 8 05/22/2025 10:00 PM
41370 14.7 3.95 -5 58 46 58 0.00 -69 8 05/22/2025 09:45 PM
41369 14.7 3.95 -5 59 48 60 0.00 -69 8 05/22/2025 09:15 PM
41368 15.2 3.89 -5 60 49 60 0.10 -69 7 05/22/2025 09:00 PM
41367 15.2 3.89 -5 60 51 60 0.00 -68 8 05/22/2025 08:45 PM
41366 15.2 3.89 -5 62 53 61 1.00 -68 8 05/22/2025 08:30 PM
41365 15.2 3.88 -13 65 53 62 4.20 -68 7 05/22/2025 08:15 PM
41364 15.3 3.97 0 69 52 65 4.50 -69 8 05/22/2025 08:00 PM
41363 15.3 3.91 0 72 52 67 4.50 -69 8 05/22/2025 07:45 PM
41362 15.3 3.99 7 75 51 69 4.50 -68 6 05/22/2025 07:30 PM
41361 15.3 3.99 10 77 51 70 4.50 -69 8 05/22/2025 07:15 PM
41360 15.4 3.94 -13 79 50 74 4.50 -68 8 05/22/2025 07:00 PM
41359 15.3 3.99 8 81 50 74 4.60 -70 7 05/22/2025 06:45 PM